NE8U Weather Reports


time (UTC)temp
F
wind
direction
speed
knots
gust
knots
rain 1hr
in
rain 24hr
in
rain mn
in
humidity
%
barometer
mb
20260506014229 70 239 0.0 2.6 0.00 0.17 0.17 32 1012.3
20260506013726 71 250 0.0 0.9 0.00 0.17 0.17 31 1012.3
20260506013223 71 257 0.0 7.0 0.00 0.17 0.17 31 1012.3
20260506012719 71 285 0.0 0.0 0.00 0.17 0.17 31 1012.2
20260506012217 72 217 0.0 4.3 0.00 0.17 0.17 32 1012.3
20260506011714 72 220 2.6 7.0 0.00 0.17 0.17 32 1012.2
20260506011210 72 283 4.3 9.6 0.00 0.17 0.17 32 1012.1
20260506010709 72 244 7.0 13.0 0.00 0.17 0.17 32 1012.1
20260506010206 73 223 5.2 7.0 0.00 0.17 0.17 32 1012.1
20260506005703 73 241 0.9 9.6 0.00 0.17 0.17 32 1012.1
20260506005159 73 192 5.2 12.2 0.00 0.17 0.17 32 1011.6
20260506004655 74 211 0.0 6.1 0.00 0.17 0.17 31 1011.7
20260506004153 74 209 0.9 7.8 0.00 0.17 0.17 30 1011.9
20260506003649 73 189 0.0 5.2 0.00 0.17 0.17 31 1012.0
20260506003145 74 237 3.5 11.3 0.00 0.17 0.17 30 1011.7
20260506002641 75 38 0.0 6.1 0.00 0.17 0.17 29 1011.6
20260506002138 75 195 0.0 0.0 0.00 0.17 0.17 29 1011.7
20260506001633 75 194 1.7 7.0 0.00 0.17 0.17 29 1011.7
20260506001131 77 202 5.2 9.6 0.00 0.17 0.17 28 1011.6
20260506000628 76 220 0.0 8.7 0.00 0.17 0.17 28 1011.4
20260506000125 76 289 2.6 8.7 0.00 0.17 0.17 28 1011.5
20260505235623 76 238 0.0 7.8 0.00 0.17 0.17 28 1011.4
20260505235120 75 255 0.9 7.0 0.00 0.17 0.17 30 1011.3
20260505234617 77 311 0.0 1.7 0.00 0.17 0.17 28 1011.3
20260505234114 76 251 0.0 7.8 0.00 0.17 0.17 29 1011.5
20260505233612 77 175 4.3 9.6 0.00 0.17 0.17 28 1011.4
20260505233109 76 203 0.0 0.9 0.00 0.17 0.17 29 1011.2
20260505232607 77 214 0.0 7.8 0.00 0.17 0.17 29 1011.3
20260505232104 75 244 0.0 12.2 0.00 0.17 0.17 31 1011.2
20260505231600 75 202 0.0 0.0 0.00 0.17 0.17 30 1011.1
20260505231059 73 117 0.0 0.0 0.00 0.17 0.17 32 1011.3
20260505230556 73 183 0.0 5.2 0.00 0.17 0.17 32 1011.4
20260505230052 74 216 0.0 0.0 0.00 0.17 0.17 32 1011.3
20260505225549 73 220 0.0 0.0 0.00 0.17 0.17 33 1011.5
20260505225045 75 187 0.0 6.1 0.00 0.17 0.17 32 1011.4
20260505224542 76 229 3.5 11.3 0.00 0.17 0.17 30 1011.4
20260505224040 76 182 0.0 1.7 0.00 0.17 0.17 31 1011.5
20260505223537 74 212 0.0 1.7 0.00 0.17 0.17 32 1011.6
20260505223033 75 213 0.0 0.0 0.00 0.17 0.17 32 1011.7
20260505222529 75 202 0.0 9.6 0.00 0.17 0.17 31 1011.6
20260505222025 74 164 0.0 0.0 0.00 0.17 0.17 31 1011.9
20260505221523 74 176 0.0 6.1 0.00 0.17 0.17 32 1011.7
20260505221019 76 217 0.9 4.3 0.00 0.17 0.17 31 1011.6
20260505220517 73 215 0.0 5.2 0.00 0.17 0.17 34 1011.9
20260505220015 74 278 0.0 2.6 0.00 0.17 0.17 34 1011.9
20260505215512 74 246 0.0 6.1 0.00 0.17 0.17 34 1012.0
20260505215010 75 312 0.0 2.6 0.00 0.17 0.17 33 1012.0
20260505214508 76 280 0.0 0.0 0.00 0.17 0.17 32 1012.2
20260505214004 76 79 0.0 0.0 0.00 0.17 0.17 33 1012.1
20260505213502 78 189 0.0 2.6 0.00 0.17 0.17 33 1012.2
20260505212958 76 175 0.0 1.7 0.00 0.17 0.17 35 1012.2
20260505212455 76 184 0.0 4.3 0.00 0.17 0.17 36 1012.4
20260505211951 76 209 3.5 9.6 0.00 0.17 0.17 37 1012.3
20260505211449 76 273 2.6 13.0 0.00 0.17 0.17 38 1012.3
20260505210945 75 251 5.2 7.8 0.00 0.17 0.17 40 1012.4
20260505210442 75 256 4.3 9.6 0.00 0.17 0.17 39 1012.3
20260505205939 77 206 5.2 8.7 0.00 0.17 0.17 33 1012.4
20260505205438 76 251 0.0 4.3 0.00 0.17 0.17 34 1012.4
20260505204934 73 197 0.9 13.0 0.00 0.17 0.17 34 1012.5
20260505204432 76 172 0.9 7.8 0.00 0.17 0.17 35 1012.5
20260505203929 78 261 0.0 8.7 0.00 0.17 0.17 34 1012.6
20260505203425 77 114 0.0 7.8 0.00 0.17 0.17 35 1012.7
20260505202922 77 136 2.6 8.7 0.00 0.17 0.17 34 1012.7
20260505202418 76 248 0.0 4.3 0.00 0.17 0.17 35 1012.7
20260505201915 75 26 0.0 9.6 0.00 0.17 0.17 34 1012.5
20260505201412 75 180 7.0 9.6 0.00 0.17 0.17 35 1012.6
20260505200910 75 158 7.0 9.6 0.00 0.17 0.17 36 1012.7
20260505200407 75 222 0.9 13.0 0.00 0.17 0.17 36 1012.8
20260505195902 75 225 3.5 9.6 0.00 0.17 0.17 43 1013.0
20260505195400 74 291 0.0 1.7 0.00 0.17 0.17 47 1012.9
20260505194857 73 339 4.3 7.0 0.00 0.17 0.17 49 1013.2
20260505194354 73 184 4.3 8.7 0.00 0.17 0.17 49 1012.9
20260505193849 75 165 5.2 11.3 0.00 0.17 0.17 34 1012.8
20260505193347 75 209 6.1 8.7 0.00 0.17 0.17 35 1012.9
20260505192844 71 264 2.6 2.6 0.00 0.17 0.17 52 1013.1
20260505192343 72 302 0.0 1.7 0.00 0.17 0.17 52 1013.0
20260505191840 70 234 0.9 1.7 0.00 0.17 0.17 54 1013.1
20260505191338 71 63 2.6 2.6 0.00 0.17 0.17 52 1013.0
20260505190835 70 19 1.7 2.6 0.00 0.17 0.17 51 1013.1
20260505190330 69 122 2.6 5.2 0.00 0.17 0.17 54 1013.4
20260505185826 69 142 2.6 5.2 0.00 0.17 0.17 54 1013.5
20260505185323 69 93 0.0 1.7 0.00 0.17 0.17 54 1013.4
20260505184819 70 177 1.7 1.7 0.00 0.17 0.17 53 1013.7
20260505184316 71 37 0.9 1.7 0.00 0.17 0.17 50 1013.4
20260505183813 72 68 0.9 1.7 0.00 0.17 0.17 50 1013.8
20260505183310 72 289 0.9 5.2 0.00 0.17 0.17 51 1013.7
20260505182807 70 167 2.6 7.0 0.00 0.17 0.17 52 1013.9
20260505182306 72 203 0.9 2.6 0.00 0.17 0.17 50 1013.8
20260505181800 72 121 1.7 5.2 0.00 0.17 0.17 51 1013.9
20260505181257 72 167 3.5 4.3 0.00 0.17 0.17 49 1013.9
20260505180753 71 224 3.5 5.2 0.00 0.17 0.17 52 1013.9
20260505180250 72 276 1.7 2.6 0.00 0.17 0.17 53 1014.0
20260505175747 68 289 1.7 2.6 0.00 0.17 0.17 58 1014.1
20260505175243 67 30 2.6 2.6 0.00 0.17 0.17 60 1014.1
20260505174740 67 56 2.6 2.6 0.00 0.17 0.17 60 1014.2
20260505174237 68 55 1.7 1.7 0.00 0.17 0.17 60 1014.3
20260505173733 68 4 0.9 1.7 0.00 0.17 0.17 60 1014.3
20260505173230 67 262 0.0 0.0 0.00 0.17 0.17 61 1014.6
20260505172727 67 291 0.0 0.9 0.00 0.17 0.17 62 1014.4
20260505172224 67 279 0.0 1.7 0.00 0.17 0.17 62 1014.4
20260505171723 67 81 0.9 1.7 0.00 0.17 0.17 61 1014.2
20260505171221 66 218 0.9 1.7 0.00 0.17 0.17 63 1014.2
20260505170717 66 269 0.0 2.6 0.00 0.17 0.17 64 1014.4
20260505170214 67 263 0.9 1.7 0.00 0.17 0.17 65 1014.3
20260505165710 66 328 0.0 0.9 0.00 0.17 0.17 62 1014.3
20260505165206 66 282 0.0 0.9 0.00 0.17 0.17 65 1014.3
20260505164701 66 256 0.0 1.7 0.00 0.17 0.17 63 1014.3
20260505164159 66 301 0.9 1.7 0.00 0.17 0.17 65 1014.3
20260505163657 66 229 1.7 1.7 0.00 0.17 0.17 66 1014.4
20260505163155 66 219 0.9 0.9 0.00 0.17 0.17 66 1014.3
20260505162652 65 261 0.0 0.9 0.00 0.17 0.17 68 1014.3
20260505162149 64 211 0.0 1.7 0.00 0.17 0.17 69 1014.4
20260505161646 64 264 0.0 1.7 0.00 0.17 0.17 71 1014.2
20260505161143 64 242 0.9 2.6 0.00 0.17 0.17 71 1014.3
20260505160642 64 217 0.9 1.7 0.00 0.17 0.17 71 1014.3
20260505160139 64 252 0.9 1.7 0.00 0.17 0.17 73 1014.3
20260505153118 64 277 0.0 1.7 0.00 0.17 0.17 80 1014.0
20260505152615 62 251 0.9 1.7 0.00 0.17 0.17 84 1014.1
20260505152110 61 221 0.9 1.7 0.00 0.17 0.17 89 1014.2
20260505151606 61 252 0.0 0.9 0.00 0.17 0.17 92 1014.0
20260505151103 60 257 0.9 1.7 0.00 0.17 0.17 94 1014.1
20260505150559 59 252 0.0 0.9 0.00 0.17 0.17 95 1014.1
20260505140525 59 292 0.0 0.9 0.00 0.17 0.17 96 1013.8
20260505124938 58 264 0.0 0.9 0.00 0.17 0.17 94 1013.1
20260505124435 57 207 0.9 1.7 0.00 0.17 0.17 94 1013.0
20260505123931 57 263 0.0 1.7 0.00 0.17 0.17 93 1013.0
20260505123428 57 243 0.9 1.7 0.00 0.17 0.17 93 1013.0
20260505122924 57 155 0.9 4.3 0.07 0.17 0.17 94 1012.8
20260505122421 57 238 0.9 0.9 0.00 0.16 0.16 95 1012.8
20260505121918 57 263 0.0 0.9 0.00 0.16 0.16 94 1012.9
20260505121415 57 265 0.0 0.9 0.00 0.16 0.16 94 1012.9
20260505120910 57 265 0.0 0.9 0.00 0.16 0.16 93 1012.9
20260505120407 57 252 0.0 0.9 0.00 0.16 0.16 92 1012.4
20260505115906 57 271 0.9 4.3 0.00 0.16 0.16 92 1012.9
20260505115403 57 153 0.9 4.3 0.00 0.16 0.16 93 1012.6
20260505114901 57 32 3.5 5.2 0.00 0.16 0.16 93 1012.7
20260505114357 57 93 2.6 4.3 0.00 0.16 0.16 94 1012.4
20260505113853 57 358 0.9 4.3 0.00 0.16 0.16 94 1012.6
20260505113350 57 100 2.6 4.3 0.00 0.16 0.16 95 1012.7
20260505112846 57 212 2.6 4.3 0.00 0.16 0.16 95 1012.8
20260505112344 57 31 1.7 4.3 0.00 0.16 0.16 95 1012.8
20260505111839 57 91 2.6 5.2 0.00 0.16 0.16 95 1012.7
20260505111335 57 141 2.6 4.3 0.05 0.16 0.16 95 1012.6
20260505110831 57 181 1.7 4.3 0.05 0.16 0.16 95 1012.6
20260505110329 57 183 0.9 4.3 0.00 0.15 0.15 94 1012.9
20260505101803 58 118 3.5 7.0 0.12 0.14 0.14 93 1013.5
20260505101259 58 152 6.1 7.8 0.07 0.13 0.13 93 1014.1
20260505100755 58 70 2.6 5.2 0.00 0.12 0.12 92 1014.1
20260505100252 58 46 5.2 8.7 0.00 0.12 0.12 93 1013.9
20260505095747 58 85 5.2 8.7 0.00 0.12 0.12 93 1013.4
20260505095246 58 34 3.5 8.7 0.00 0.12 0.12 94 1013.8
20260505094741 58 68 5.2 7.8 0.00 0.12 0.12 94 1013.8
20260505094238 58 77 7.8 11.3 0.00 0.12 0.12 95 1013.6
20260505093733 58 114 7.8 13.0 0.00 0.12 0.12 94 1013.8
20260505093231 59 86 4.3 7.0 0.00 0.12 0.12 93 1013.9
20260505092728 58 99 8.7 15.6 0.00 0.12 0.12 93 1013.9
20260505092227 58 99 2.6 8.7 0.00 0.12 0.12 93 1014.0
20260505091723 58 106 4.3 7.0 0.00 0.12 0.12 93 1014.0
20260505091222 59 137 5.2 7.0 0.00 0.12 0.12 92 1014.0
20260505090719 59 132 5.2 8.7 0.00 0.12 0.12 91 1014.1
20260505090217 58 157 4.3 9.6 0.05 0.12 0.12 92 1014.0
20260505085714 58 103 4.3 7.0 0.05 0.12 0.12 92 1014.1
20260505085212 58 34 1.7 6.1 0.00 0.11 0.11 92 1014.2
20260505084709 58 109 2.6 7.8 0.00 0.11 0.11 93 1014.4
20260505084209 58 35 6.1 12.2 0.00 0.11 0.11 93 1014.5
20260505083705 58 91 4.3 7.8 0.07 0.11 0.11 93 1014.6
20260505083201 58 110 4.3 9.6 0.07 0.11 0.11 94 1015.0
20260505082657 58 65 2.6 7.0 0.07 0.10 0.10 94 1015.3
20260505082155 58 106 4.3 7.8 0.05 0.09 0.09 94 1015.6
20260505081650 58 168 4.3 6.1 0.05 0.09 0.09 94 1015.6
20260505081148 58 79 2.6 5.2 0.07 0.08 0.08 94 1015.7
20260505080645 58 141 2.6 5.2 0.07 0.08 0.08 94 1015.9
20260505080141 58 80 2.6 6.1 0.05 0.07 0.07 94 1016.0
20260505075637 58 100 3.5 7.0 0.05 0.07 0.07 94 1016.2
20260505075134 58 189 3.5 7.0 0.07 0.06 0.06 94 1016.4
20260505074631 58 118 3.5 6.1 0.12 0.06 0.06 94 1016.0
20260505074128 58 112 2.6 7.0 0.12 0.05 0.05 94 1016.2
20260505073626 58 39 2.6 6.1 0.12 0.04 0.04 94 1016.6
20260505073124 58 118 2.6 4.3 0.12 0.03 0.03 94 1016.5
20260505072619 58 77 2.6 4.3 0.07 0.02 0.02 95 1016.5
20260505072116 58 69 0.9 4.3 0.00 0.01 0.01 95 1016.5
20260505071611 59 99 2.6 5.2 0.05 0.01 0.01 95 1016.7
20260505071109 59 126 1.7 2.6 0.05 0.01 0.01 95 1016.5
20260505070606 59 44 1.7 1.7 0.00 0.00 0.00 95 1016.5
20260505065558 59 323 0.9 2.6 0.07 0.19 0.19 95 1016.5
20260505065055 59 45 0.9 1.7 0.07 0.18 0.18 94 1016.5
20260505064552 59 1 0.9 1.7 0.05 0.17 0.17 94 1016.5
20260505064051 59 10 0.9 1.7 0.05 0.17 0.17 94 1016.2
20260505063547 59 128 1.7 1.7 0.07 0.16 0.16 94 1016.4
20260505063043 59 329 0.0 1.7 0.07 0.16 0.16 93 1016.2
20260505062540 59 72 0.0 2.6 0.05 0.15 0.15 93 1016.4
20260505062037 59 21 0.9 1.7 0.05 0.15 0.15 92 1016.3
20260505061535 59 111 1.7 4.3 0.07 0.14 0.14 92 1016.4
20260505061032 59 135 0.9 1.7 0.07 0.14 0.14 92 1016.4
20260505060530 59 158 1.7 2.6 0.00 0.13 0.13 92 1016.4
20260505060026 59 270 0.9 5.2 0.00 0.13 0.13 91 1016.3
20260505055521 59 130 2.6 4.3 0.00 0.13 0.13 91 1016.3
20260505055018 59 83 0.9 4.3 0.00 0.13 0.13 91 1016.0
20260505054516 59 93 2.6 6.1 0.05 0.13 0.13 91 1016.0
20260505054014 59 90 0.9 2.6 0.07 0.12 0.12 91 1015.9
20260505053511 59 116 0.9 2.6 0.07 0.12 0.12 91 1016.2
20260505053008 59 68 1.7 5.2 0.00 0.11 0.11 91 1016.2
20260505052505 59 94 0.9 2.6 0.00 0.11 0.11 92 1016.4
20260505052002 58 123 0.0 0.0 0.00 0.11 0.11 92 1016.4
20260505051458 58 71 0.0 0.0 0.00 0.11 0.11 93 1016.3
20260505050957 58 291 0.0 0.0 0.00 0.11 0.11 92 1016.2
20260505050455 58 3 0.0 0.0 0.05 0.11 0.11 92 1016.3
20260505041422 57 185 0.0 0.0 0.07 0.08 0.08 84 1016.6
20260505040919 58 270 0.0 0.0 0.12 0.07 0.07 81 1016.5
20260505040417 59 232 0.0 0.0 0.07 0.06 0.06 78 1016.7
20260505035913 61 269 0.0 0.0 0.07 0.05 0.05 72 1016.4
20260505035409 62 218 0.0 1.7 0.07 0.05 0.05 68 1016.6
20260505034907 64 156 0.0 0.0 0.00 0.04 0.04 64 1016.6
20260505034403 64 198 0.9 2.6 0.00 0.04 0.04 62 1016.4
20260505033901 65 184 2.6 6.1 0.00 0.04 0.04 59 1015.9
20260505033357 65 174 0.0 2.6 0.00 0.04 0.04 60 1015.6
20260505032855 65 73 1.7 9.6 0.00 0.04 0.04 58 1015.2
20260505032352 64 168 1.7 1.7 0.00 0.04 0.04 60 1015.2
20260505031848 64 77 2.6 9.6 0.00 0.04 0.04 58 1014.9
20260505031345 63 110 7.0 8.7 0.00 0.04 0.04 56 1014.8
20260505030843 63 65 7.8 11.3 0.00 0.04 0.04 56 1014.6
20260505030338 62 30 7.8 13.0 0.00 0.04 0.04 57 1015.0
20260505025834 61 143 3.5 7.0 0.00 0.04 0.04 64 1015.2
20260505025332 62 68 3.5 7.8 0.00 0.04 0.04 62 1015.4
20260505024830 62 222 2.6 9.6 0.00 0.04 0.04 62 1015.4
20260505024327 61 121 5.2 12.2 0.05 0.04 0.04 63 1015.3
20260505023824 62 75 4.3 8.7 0.05 0.04 0.04 65 1015.3
20260505023321 62 74 2.6 7.0 0.00 0.03 0.03 66 1015.5
20260505022819 61 41 0.0 6.1 0.00 0.03 0.03 70 1015.7
20260505022315 59 198 0.0 0.0 0.00 0.03 0.03 77 1016.0
20260505021813 59 4 0.0 0.0 0.00 0.03 0.03 77 1015.7
20260505021309 59 343 0.0 0.0 0.00 0.03 0.03 81 1016.2
20260505020805 59 20 0.0 0.0 0.07 0.03 0.03 78 1015.9
20260505020301 59 62 0.0 0.0 0.07 0.03 0.03 79 1015.9
20260505015758 59 358 0.0 0.0 0.00 0.02 0.02 81 1016.2
20260505015255 60 318 0.0 0.0 0.05 0.02 0.02 77 1016.3
20260505014752 61 319 0.0 0.0 0.12 0.02 0.02 74 1016.3